Time,TemperatureF,DewpointF,PressureIn,WindDirection,WindDirectionDegrees,WindSpeedMPH,WindSpeedGustMPH,Humidity,HourlyPrecipIn,Conditions,Clouds,dailyrainin,SoftwareType,DateUTC
2013-11-30 00:01:00,14.2,11.0,29.33,SE,135,2.0,3.0,89,0.00,,,0.00,Rainwise IP-100,2013-11-30 05:01:00,
2013-11-30 00:02:00,14.1,11.0,29.33,SSE,157,1.0,2.0,90,0.00,,,0.00,Rainwise IP-100,2013-11-30 05:02:00,
2013-11-30 00:03:00,13.9,11.0,29.33,SSE,157,2.0,2.0,90,0.00,,,0.00,Rainwise IP-100,2013-11-30 05:03:00,
2013-11-30 00:05:00,13.8,11.0,29.33,SSE,157,2.0,2.0,90,0.00,,,0.00,Rainwise IP-100,2013-11-30 05:05:00,
2013-11-30 00:06:00,13.7,11.0,29.33,SSE,157,1.0,2.0,91,0.00,,,0.00,Rainwise IP-100,2013-11-30 05:06:00,
2013-11-30 00:08:00,13.5,11.0,29.33,SSE,157,2.0,2.0,91,0.00,,,0.00,Rainwise IP-100,2013-11-30 05:08:00,
2013-11-30 00:13:00,13.8,11.0,29.32,SSE,157,1.0,2.0,92,0.00,,,0.00,Rainwise IP-100,2013-11-30 05:13:00,
2013-11-30 00:18:00,13.8,11.0,29.32,SE,135,2.0,2.0,91,0.00,,,0.00,Rainwise IP-100,2013-11-30 05:18:00,
2013-11-30 00:24:00,14.2,11.0,29.32,SE,135,1.0,4.0,90,0.00,,,0.00,Rainwise IP-100,2013-11-30 05:24:00,
2013-11-30 00:29:00,13.9,11.0,29.31,SSE,157,1.0,4.0,91,0.00,,,0.00,Rainwise IP-100,2013-11-30 05:29:00,
2013-11-30 00:34:00,13.6,11.0,29.32,SSE,157,1.0,4.0,91,0.00,,,0.00,Rainwise IP-100,2013-11-30 05:34:00,
2013-11-30 00:39:00,13.4,11.0,29.32,SSE,157,2.0,3.0,91,0.00,,,0.00,Rainwise IP-100,2013-11-30 05:39:00,
2013-11-30 00:44:00,13.3,11.0,29.32,SSE,157,1.0,2.0,92,0.00,,,0.00,Rainwise IP-100,2013-11-30 05:44:00,
2013-11-30 00:49:00,13.1,11.0,29.31,SSE,157,1.0,2.0,93,0.00,,,0.00,Rainwise IP-100,2013-11-30 05:49:00,
2013-11-30 00:54:00,13.2,11.0,29.30,SSE,157,2.0,2.0,93,0.00,,,0.00,Rainwise IP-100,2013-11-30 05:54:00,
2013-11-30 00:59:00,13.3,11.0,29.30,SSE,157,2.0,2.0,93,0.00,,,0.00,Rainwise IP-100,2013-11-30 05:59:00,
2013-11-30 01:04:00,13.3,11.0,29.30,SSE,157,1.0,2.0,93,0.00,,,0.00,Rainwise IP-100,2013-11-30 06:04:00,
2013-11-30 01:09:00,13.4,11.0,29.30,SSE,157,2.0,2.0,93,0.00,,,0.00,Rainwise IP-100,2013-11-30 06:09:00,
2013-11-30 01:14:00,13.3,11.0,29.29,SSE,157,1.0,2.0,93,0.00,,,0.00,Rainwise IP-100,2013-11-30 06:14:00,
2013-11-30 01:19:00,13.4,11.0,29.29,SSE,157,2.0,2.0,93,0.00,,,0.00,Rainwise IP-100,2013-11-30 06:19:00,
2013-11-30 01:25:00,13.5,11.0,29.29,SSE,157,2.0,4.0,93,0.00,,,0.00,Rainwise IP-100,2013-11-30 06:25:00,
2013-11-30 01:30:00,13.9,11.0,29.29,SE,135,1.0,4.0,92,0.00,,,0.00,Rainwise IP-100,2013-11-30 06:30:00,
2013-11-30 01:35:00,13.9,11.0,29.29,SE,135,1.0,2.0,91,0.00,,,0.00,Rainwise IP-100,2013-11-30 06:35:00,
2013-11-30 01:40:00,13.7,11.0,29.30,SE,135,1.0,2.0,92,0.00,,,0.00,Rainwise IP-100,2013-11-30 06:40:00,
2013-11-30 01:45:00,14.2,11.0,29.30,SE,135,2.0,4.0,91,0.00,,,0.00,Rainwise IP-100,2013-11-30 06:45:00,
2013-11-30 01:50:00,14.2,11.0,29.30,SE,135,2.0,4.0,91,0.00,,,0.00,Rainwise IP-100,2013-11-30 06:50:00,
2013-11-30 01:55:00,13.9,11.0,29.29,SSE,157,1.0,3.0,91,0.00,,,0.00,Rainwise IP-100,2013-11-30 06:55:00,
2013-11-30 02:00:00,13.7,11.0,29.29,SE,135,2.0,3.0,92,0.00,,,0.00,Rainwise IP-100,2013-11-30 07:00:00,
2013-11-30 02:05:00,13.4,11.0,29.29,SSE,157,2.0,2.0,92,0.00,,,0.00,Rainwise IP-100,2013-11-30 07:05:00,
2013-11-30 02:10:00,13.4,11.0,29.29,SSE,157,2.0,2.0,93,0.00,,,0.00,Rainwise IP-100,2013-11-30 07:10:00,
2013-11-30 02:15:00,13.1,11.0,29.29,SSE,157,1.0,2.0,93,0.00,,,0.00,Rainwise IP-100,2013-11-30 07:15:00,
2013-11-30 02:20:00,12.8,11.0,29.29,SSE,157,2.0,2.0,93,0.00,,,0.00,Rainwise IP-100,2013-11-30 07:20:00,
2013-11-30 02:26:00,13.5,11.0,29.29,SSE,157,2.0,4.0,93,0.00,,,0.00,Rainwise IP-100,2013-11-30 07:26:00,
2013-11-30 02:31:00,14.2,11.0,29.29,SE,135,2.0,6.0,92,0.00,,,0.00,Rainwise IP-100,2013-11-30 07:31:00,
2013-11-30 02:36:00,14.7,14.0,29.29,SE,135,4.0,6.0,90,0.00,,,0.00,Rainwise IP-100,2013-11-30 07:36:00,
2013-11-30 02:41:00,15.2,14.0,29.29,SSE,157,2.0,6.0,90,0.00,,,0.00,Rainwise IP-100,2013-11-30 07:41:00,
2013-11-30 02:46:00,15.2,14.0,29.29,SSE,157,2.0,6.0,89,0.00,,,0.00,Rainwise IP-100,2013-11-30 07:46:00,
2013-11-30 02:51:00,15.5,14.0,29.29,ESE,112,3.0,7.0,89,0.00,,,0.00,Rainwise IP-100,2013-11-30 07:51:00,
2013-11-30 02:56:00,15.9,14.0,29.29,SE,135,4.0,6.0,88,0.00,,,0.00,Rainwise IP-100,2013-11-30 07:56:00,
2013-11-30 03:01:00,15.9,14.0,29.29,ESE,112,2.0,5.0,87,0.00,,,0.00,Rainwise IP-100,2013-11-30 08:01:00,
2013-11-30 03:06:00,15.9,14.0,29.29,ESE,112,6.0,6.0,87,0.00,,,0.00,Rainwise IP-100,2013-11-30 08:06:00,
2013-11-30 03:11:00,15.9,14.0,29.28,ESE,112,2.0,6.0,86,0.00,,,0.00,Rainwise IP-100,2013-11-30 08:11:00,
2013-11-30 03:16:00,15.9,14.0,29.28,ESE,112,4.0,5.0,87,0.00,,,0.00,Rainwise IP-100,2013-11-30 08:16:00,
2013-11-30 03:21:00,15.9,14.0,29.28,SE,135,2.0,5.0,87,0.00,,,0.00,Rainwise IP-100,2013-11-30 08:21:00,
2013-11-30 03:27:00,15.9,14.0,29.28,SSE,157,2.0,5.0,87,0.00,,,0.00,Rainwise IP-100,2013-11-30 08:27:00,
2013-11-30 03:32:00,15.7,14.0,29.28,SE,135,3.0,3.0,88,0.00,,,0.00,Rainwise IP-100,2013-11-30 08:32:00,
2013-11-30 03:37:00,15.6,14.0,29.28,SE,135,4.0,6.0,88,0.00,,,0.00,Rainwise IP-100,2013-11-30 08:37:00,
2013-11-30 03:42:00,15.3,14.0,29.28,SSE,157,2.0,4.0,89,0.00,,,0.00,Rainwise IP-100,2013-11-30 08:42:00,
2013-11-30 03:47:00,15.3,14.0,29.28,SSE,157,3.0,6.0,89,0.00,,,0.00,Rainwise IP-100,2013-11-30 08:47:00,
2013-11-30 03:52:00,15.4,14.0,29.28,SSE,157,2.0,6.0,89,0.00,,,0.00,Rainwise IP-100,2013-11-30 08:52:00,
2013-11-30 03:57:00,15.2,14.0,29.27,SSE,157,2.0,3.0,90,0.00,,,0.00,Rainwise IP-100,2013-11-30 08:57:00,
2013-11-30 04:02:00,14.9,14.0,29.27,SSE,157,2.0,2.0,90,0.00,,,0.00,Rainwise IP-100,2013-11-30 09:02:00,
2013-11-30 04:07:00,15.2,14.0,29.27,SSE,157,4.0,6.0,90,0.00,,,0.00,Rainwise IP-100,2013-11-30 09:07:00,
2013-11-30 04:12:00,15.4,14.0,29.27,SE,135,2.0,6.0,90,0.00,,,0.00,Rainwise IP-100,2013-11-30 09:12:00,
2013-11-30 04:17:00,15.8,14.0,29.27,SSE,157,3.0,6.0,89,0.00,,,0.00,Rainwise IP-100,2013-11-30 09:17:00,
2013-11-30 04:22:00,15.9,14.0,29.27,SE,135,3.0,4.0,89,0.00,,,0.00,Rainwise IP-100,2013-11-30 09:22:00,
2013-11-30 04:28:00,16.2,14.0,29.27,SSE,157,2.0,6.0,90,0.00,,,0.00,Rainwise IP-100,2013-11-30 09:28:00,
2013-11-30 04:33:00,16.6,16.0,29.25,SE,135,5.0,10.0,88,0.00,,,0.00,Rainwise IP-100,2013-11-30 09:33:00,
2013-11-30 04:38:00,16.9,16.0,29.25,SE,135,3.0,7.0,87,0.00,,,0.00,Rainwise IP-100,2013-11-30 09:38:00,
2013-11-30 04:43:00,16.9,16.0,29.26,SE,135,4.0,7.0,87,0.00,,,0.00,Rainwise IP-100,2013-11-30 09:43:00,
2013-11-30 04:48:00,16.9,16.0,29.26,SE,135,4.0,5.0,87,0.00,,,0.00,Rainwise IP-100,2013-11-30 09:48:00,
2013-11-30 04:53:00,16.8,16.0,29.25,SE,135,2.0,6.0,86,0.00,,,0.00,Rainwise IP-100,2013-11-30 09:53:00,
2013-11-30 04:58:00,16.9,16.0,29.25,SE,135,6.0,6.0,86,0.00,,,0.00,Rainwise IP-100,2013-11-30 09:58:00,
2013-11-30 05:03:00,16.9,16.0,29.25,ESE,112,2.0,6.0,86,0.00,,,0.00,Rainwise IP-100,2013-11-30 10:03:00,
2013-11-30 05:08:00,16.8,16.0,29.25,ESE,112,4.0,5.0,87,0.00,,,0.00,Rainwise IP-100,2013-11-30 10:08:00,
2013-11-30 05:13:00,16.8,16.0,29.25,SE,135,2.0,5.0,87,0.00,,,0.00,Rainwise IP-100,2013-11-30 10:13:00,
2013-11-30 05:18:00,16.9,16.0,29.25,SSE,157,2.0,6.0,87,0.00,,,0.00,Rainwise IP-100,2013-11-30 10:18:00,
2013-11-30 05:23:00,16.8,16.0,29.25,SSE,157,2.0,6.0,86,0.00,,,0.00,Rainwise IP-100,2013-11-30 10:23:00,
2013-11-30 05:29:00,16.7,16.0,29.24,SE,135,3.0,5.0,86,0.00,,,0.00,Rainwise IP-100,2013-11-30 10:29:00,
2013-11-30 05:34:00,16.5,16.0,29.24,SSE,157,3.0,6.0,86,0.00,,,0.00,Rainwise IP-100,2013-11-30 10:34:00,
2013-11-30 05:39:00,16.2,14.0,29.23,SSE,157,3.0,5.0,87,0.00,,,0.00,Rainwise IP-100,2013-11-30 10:39:00,
2013-11-30 05:44:00,15.8,14.0,29.24,SE,135,2.0,5.0,87,0.00,,,0.00,Rainwise IP-100,2013-11-30 10:44:00,
2013-11-30 05:49:00,15.4,14.0,29.24,SSE,157,4.0,7.0,88,0.00,,,0.00,Rainwise IP-100,2013-11-30 10:49:00,
2013-11-30 05:54:00,15.3,14.0,29.24,SSE,157,2.0,8.0,88,0.00,,,0.00,Rainwise IP-100,2013-11-30 10:54:00,
2013-11-30 05:59:00,15.1,14.0,29.24,SE,135,3.0,6.0,89,0.00,,,0.00,Rainwise IP-100,2013-11-30 10:59:00,
2013-11-30 06:04:00,14.9,14.0,29.24,SE,135,5.0,7.0,89,0.00,,,0.00,Rainwise IP-100,2013-11-30 11:04:00,
2013-11-30 06:09:00,14.7,14.0,29.23,SSE,157,4.0,7.0,90,0.00,,,0.00,Rainwise IP-100,2013-11-30 11:09:00,
2013-11-30 06:14:00,14.6,14.0,29.23,SE,135,2.0,6.0,89,0.00,,,0.00,Rainwise IP-100,2013-11-30 11:14:00,
2013-11-30 06:19:00,14.6,14.0,29.23,SSE,157,4.0,6.0,89,0.00,,,0.00,Rainwise IP-100,2013-11-30 11:19:00,
2013-11-30 06:24:00,14.7,14.0,29.23,SSE,157,2.0,7.0,89,0.00,,,0.00,Rainwise IP-100,2013-11-30 11:24:00,
2013-11-30 06:30:00,14.7,14.0,29.22,SE,135,4.0,8.0,88,0.00,,,0.00,Rainwise IP-100,2013-11-30 11:30:00,
2013-11-30 06:35:00,14.7,14.0,29.22,SE,135,2.0,7.0,88,0.00,,,0.00,Rainwise IP-100,2013-11-30 11:35:00,
2013-11-30 06:40:00,14.7,14.0,29.22,SE,135,2.0,6.0,89,0.00,,,0.00,Rainwise IP-100,2013-11-30 11:40:00,
2013-11-30 06:45:00,14.8,14.0,29.22,SE,135,2.0,6.0,88,0.00,,,0.00,Rainwise IP-100,2013-11-30 11:45:00,
2013-11-30 06:50:00,14.8,14.0,29.23,SE,135,2.0,5.0,88,0.00,,,0.00,Rainwise IP-100,2013-11-30 11:50:00,
2013-11-30 06:55:00,14.8,14.0,29.22,SE,135,4.0,6.0,88,0.00,,,0.00,Rainwise IP-100,2013-11-30 11:55:00,
2013-11-30 07:00:00,14.8,14.0,29.22,SSE,157,3.0,6.0,88,0.00,,,0.00,Rainwise IP-100,2013-11-30 12:00:00,
2013-11-30 07:05:00,14.7,14.0,29.22,SE,135,2.0,6.0,88,0.00,,,0.00,Rainwise IP-100,2013-11-30 12:05:00,
2013-11-30 07:10:00,14.5,14.0,29.22,ESE,112,4.0,6.0,88,0.00,,,0.00,Rainwise IP-100,2013-11-30 12:10:00,
2013-11-30 07:15:00,14.6,14.0,29.20,SSE,157,3.0,7.0,88,0.00,,,0.00,Rainwise IP-100,2013-11-30 12:15:00,
2013-11-30 07:20:00,14.6,14.0,29.20,SE,135,2.0,6.0,88,0.00,,,0.00,Rainwise IP-100,2013-11-30 12:20:00,
2013-11-30 07:25:00,14.6,14.0,29.20,SE,135,7.0,7.0,89,0.00,,,0.00,Rainwise IP-100,2013-11-30 12:25:00,
2013-11-30 07:31:00,15.6,14.0,29.20,ESE,112,3.0,7.0,85,0.00,,,0.00,Rainwise IP-100,2013-11-30 12:31:00,
2013-11-30 07:36:00,16.4,11.0,29.20,SE,135,4.0,9.0,82,0.00,,,0.00,Rainwise IP-100,2013-11-30 12:36:00,
2013-11-30 07:41:00,16.8,14.0,29.20,SE,135,2.0,11.0,82,0.00,,,0.00,Rainwise IP-100,2013-11-30 12:41:00,
2013-11-30 07:46:00,16.9,14.0,29.21,SE,135,4.0,9.0,81,0.00,,,0.00,Rainwise IP-100,2013-11-30 12:46:00,
2013-11-30 07:51:00,17.0,14.0,29.21,ESE,112,4.0,7.0,80,0.00,,,0.00,Rainwise IP-100,2013-11-30 12:51:00,
2013-11-30 07:56:00,16.9,14.0,29.21,SE,135,5.0,8.0,80,0.00,,,0.00,Rainwise IP-100,2013-11-30 12:56:00,
2013-11-30 08:01:00,16.8,14.0,29.21,ESE,112,4.0,7.0,81,0.00,,,0.00,Rainwise IP-100,2013-11-30 13:01:00,
2013-11-30 08:06:00,16.9,14.0,29.21,ESE,112,5.0,8.0,80,0.00,,,0.00,Rainwise IP-100,2013-11-30 13:06:00,
2013-11-30 08:11:00,16.9,14.0,29.21,ESE,112,7.0,8.0,80,0.00,,,0.00,Rainwise IP-100,2013-11-30 13:11:00,
2013-11-30 08:16:00,17.1,14.0,29.21,SE,135,3.0,7.0,80,0.00,,,0.00,Rainwise IP-100,2013-11-30 13:16:00,
2013-11-30 08:21:00,17.5,14.0,29.20,SE,135,6.0,7.0,77,0.00,,,0.00,Rainwise IP-100,2013-11-30 13:21:00,
2013-11-30 08:26:00,17.8,14.0,29.20,SSE,157,6.0,9.0,76,0.00,,,0.00,Rainwise IP-100,2013-11-30 13:26:00,
2013-11-30 08:32:00,17.9,14.0,29.20,SSE,157,4.0,8.0,76,0.00,,,0.00,Rainwise IP-100,2013-11-30 13:32:00,
2013-11-30 08:37:00,18.1,14.0,29.20,SE,135,4.0,11.0,76,0.00,,,0.00,Rainwise IP-100,2013-11-30 13:37:00,
2013-11-30 08:42:00,18.4,14.0,29.20,SSE,157,6.0,9.0,75,0.00,,,0.00,Rainwise IP-100,2013-11-30 13:42:00,
2013-11-30 08:47:00,18.7,14.0,29.21,SE,135,4.0,8.0,75,0.00,,,0.00,Rainwise IP-100,2013-11-30 13:47:00,
2013-11-30 08:52:00,18.9,14.0,29.21,ESE,112,9.0,9.0,74,0.00,,,0.00,Rainwise IP-100,2013-11-30 13:52:00,
2013-11-30 08:57:00,19.2,14.0,29.21,ESE,112,4.0,9.0,74,0.00,,,0.00,Rainwise IP-100,2013-11-30 13:57:00,
2013-11-30 09:02:00,19.7,14.0,29.21,SSE,157,6.0,11.0,72,0.00,,,0.00,Rainwise IP-100,2013-11-30 14:02:00,
2013-11-30 09:07:00,19.9,14.0,29.21,SE,135,3.0,9.0,71,0.00,,,0.00,Rainwise IP-100,2013-11-30 14:07:00,
2013-11-30 09:12:00,20.5,14.0,29.21,SE,135,7.0,10.0,70,0.00,,,0.00,Rainwise IP-100,2013-11-30 14:12:00,
2013-11-30 09:17:00,21.2,14.0,29.21,SSE,157,8.0,9.0,69,0.00,,,0.00,Rainwise IP-100,2013-11-30 14:17:00,
2013-11-30 09:22:00,21.9,14.0,29.21,SE,135,5.0,9.0,67,0.00,,,0.00,Rainwise IP-100,2013-11-30 14:22:00,
2013-11-30 09:27:00,22.1,14.0,29.21,SE,135,7.0,9.0,66,0.00,,,0.00,Rainwise IP-100,2013-11-30 14:27:00,
2013-11-30 09:33:00,22.7,14.0,29.20,SE,135,6.0,10.0,65,0.00,,,0.00,Rainwise IP-100,2013-11-30 14:33:00,
2013-11-30 09:38:00,23.2,14.0,29.20,SE,135,7.0,9.0,65,0.00,,,0.00,Rainwise IP-100,2013-11-30 14:38:00,
2013-11-30 09:43:00,23.8,14.0,29.19,ESE,112,6.0,9.0,64,0.00,,,0.00,Rainwise IP-100,2013-11-30 14:43:00,
2013-11-30 09:48:00,24.4,14.0,29.19,SSE,157,5.0,11.0,61,0.00,,,0.00,Rainwise IP-100,2013-11-30 14:48:00,
2013-11-30 09:53:00,25.4,14.0,29.18,ESE,112,8.0,13.0,58,0.00,,,0.00,Rainwise IP-100,2013-11-30 14:53:00,
2013-11-30 09:58:00,25.9,14.0,29.18,ESE,112,7.0,11.0,59,0.00,,,0.00,Rainwise IP-100,2013-11-30 14:58:00,
2013-11-30 10:03:00,26.4,14.0,29.18,SE,135,5.0,12.0,59,0.00,,,0.00,Rainwise IP-100,2013-11-30 15:03:00,
2013-11-30 10:08:00,26.9,16.0,29.17,South,180,4.0,11.0,60,0.00,,,0.00,Rainwise IP-100,2013-11-30 15:08:00,
2013-11-30 10:13:00,26.9,16.0,29.18,South,180,6.0,11.0,58,0.00,,,0.00,Rainwise IP-100,2013-11-30 15:13:00,
2013-11-30 10:18:00,26.9,16.0,29.17,SE,135,4.0,11.0,60,0.00,,,0.00,Rainwise IP-100,2013-11-30 15:18:00,
2013-11-30 10:23:00,27.1,16.0,29.17,SE,135,4.0,10.0,59,0.00,,,0.00,Rainwise IP-100,2013-11-30 15:23:00,
2013-11-30 10:28:00,27.5,16.0,29.17,SE,135,6.0,9.0,60,0.00,,,0.00,Rainwise IP-100,2013-11-30 15:28:00,
2013-11-30 10:34:00,27.7,16.0,29.17,SE,135,3.0,8.0,62,0.00,,,0.00,Rainwise IP-100,2013-11-30 15:34:00,
2013-11-30 10:39:00,27.9,16.0,29.17,ESE,112,2.0,8.0,62,0.00,,,0.00,Rainwise IP-100,2013-11-30 15:39:00,
2013-11-30 10:44:00,27.9,16.0,29.18,ESE,112,5.0,9.0,58,0.00,,,0.00,Rainwise IP-100,2013-11-30 15:44:00,
2013-11-30 10:49:00,27.9,16.0,29.17,ESE,112,4.0,9.0,62,0.00,,,0.00,Rainwise IP-100,2013-11-30 15:49:00,
2013-11-30 10:54:00,27.6,18.0,29.16,East,90,6.0,9.0,64,0.00,,,0.00,Rainwise IP-100,2013-11-30 15:54:00,
2013-11-30 10:59:00,27.2,18.0,29.15,SSE,157,5.0,11.0,64,0.00,,,0.00,Rainwise IP-100,2013-11-30 15:59:00,
2013-11-30 11:04:00,27.4,18.0,29.14,SE,135,6.0,9.0,66,0.00,,,0.00,Rainwise IP-100,2013-11-30 16:04:00,
2013-11-30 11:09:00,27.6,18.0,29.14,ESE,112,6.0,9.0,65,0.00,,,0.00,Rainwise IP-100,2013-11-30 16:09:00,
2013-11-30 11:14:00,27.5,18.0,29.14,SE,135,4.0,10.0,66,0.00,,,0.00,Rainwise IP-100,2013-11-30 16:14:00,
2013-11-30 11:19:00,27.4,18.0,29.14,ESE,112,5.0,9.0,64,0.00,,,0.00,Rainwise IP-100,2013-11-30 16:19:00,
2013-11-30 11:24:00,27.6,18.0,29.13,SE,135,3.0,10.0,64,0.00,,,0.00,Rainwise IP-100,2013-11-30 16:24:00,
2013-11-30 11:29:00,27.7,18.0,29.13,SE,135,6.0,9.0,64,0.00,,,0.00,Rainwise IP-100,2013-11-30 16:29:00,
2013-11-30 11:35:00,27.9,18.0,29.13,SSE,157,4.0,11.0,66,0.00,,,0.00,Rainwise IP-100,2013-11-30 16:35:00,
2013-11-30 11:40:00,27.9,18.0,29.13,SE,135,4.0,8.0,64,0.00,,,0.00,Rainwise IP-100,2013-11-30 16:40:00,
2013-11-30 11:45:00,28.1,16.0,29.12,SSE,157,6.0,7.0,63,0.00,,,0.00,Rainwise IP-100,2013-11-30 16:45:00,
2013-11-30 11:50:00,28.3,18.0,29.12,ESE,112,4.0,7.0,64,0.00,,,0.00,Rainwise IP-100,2013-11-30 16:50:00,
2013-11-30 11:55:00,28.5,18.0,29.12,SE,135,4.0,8.0,65,0.00,,,0.00,Rainwise IP-100,2013-11-30 16:55:00,
2013-11-30 12:00:00,28.6,18.0,29.11,ESE,112,3.0,8.0,63,0.00,,,0.00,Rainwise IP-100,2013-11-30 17:00:00,
2013-11-30 12:05:00,28.8,18.0,29.11,SSE,157,2.0,6.0,65,0.00,,,0.00,Rainwise IP-100,2013-11-30 17:05:00,
2013-11-30 12:11:00,29.1,18.0,29.11,ESE,112,2.0,6.0,63,0.00,,,0.00,Rainwise IP-100,2013-11-30 17:11:00,
2013-11-30 12:16:00,29.4,18.0,29.11,ESE,112,4.0,6.0,62,0.00,,,0.00,Rainwise IP-100,2013-11-30 17:16:00,
2013-11-30 12:21:00,29.3,18.0,29.11,ESE,112,5.0,7.0,63,0.00,,,0.00,Rainwise IP-100,2013-11-30 17:21:00,
2013-11-30 12:26:00,29.5,21.0,29.10,SE,135,4.0,7.0,64,0.00,,,0.00,Rainwise IP-100,2013-11-30 17:26:00,
2013-11-30 12:32:00,29.6,21.0,29.09,SE,135,2.0,6.0,64,0.00,,,0.00,Rainwise IP-100,2013-11-30 17:32:00,
2013-11-30 12:37:00,29.8,21.0,29.09,SE,135,3.0,9.0,64,0.00,,,0.00,Rainwise IP-100,2013-11-30 17:37:00,
2013-11-30 12:42:00,29.9,21.0,29.09,SE,135,3.0,5.0,64,0.00,,,0.00,Rainwise IP-100,2013-11-30 17:42:00,
2013-11-30 12:47:00,30.2,21.0,29.09,ESE,112,3.0,6.0,65,0.00,,,0.00,Rainwise IP-100,2013-11-30 17:47:00,
2013-11-30 12:52:00,30.3,21.0,29.09,ESE,112,2.0,6.0,63,0.00,,,0.00,Rainwise IP-100,2013-11-30 17:52:00,
2013-11-30 12:57:00,30.4,21.0,29.09,ESE,112,2.0,5.0,66,0.00,,,0.00,Rainwise IP-100,2013-11-30 17:57:00,
2013-11-30 13:02:00,30.9,21.0,29.09,SSE,157,2.0,4.0,66,0.00,,,0.00,Rainwise IP-100,2013-11-30 18:02:00,
2013-11-30 13:07:00,31.4,21.0,29.09,SSE,157,3.0,6.0,64,0.00,,,0.00,Rainwise IP-100,2013-11-30 18:07:00,
2013-11-30 13:12:00,31.4,21.0,29.08,SSE,157,4.0,6.0,63,0.00,,,0.00,Rainwise IP-100,2013-11-30 18:12:00,
2013-11-30 13:17:00,31.6,23.0,29.08,South,180,3.0,4.0,65,0.00,,,0.00,Rainwise IP-100,2013-11-30 18:17:00,
2013-11-30 13:22:00,31.8,21.0,29.08,SSE,157,3.0,4.0,63,0.00,,,0.00,Rainwise IP-100,2013-11-30 18:22:00,
2013-11-30 13:27:00,31.7,21.0,29.07,South,180,2.0,7.0,62,0.00,,,0.00,Rainwise IP-100,2013-11-30 18:27:00,
2013-11-30 13:33:00,31.9,23.0,29.07,SE,135,4.0,5.0,64,0.00,,,0.00,Rainwise IP-100,2013-11-30 18:33:00,
2013-11-30 13:38:00,32.2,23.0,29.07,SE,135,2.0,4.0,64,0.00,,,0.00,Rainwise IP-100,2013-11-30 18:38:00,
2013-11-30 13:43:00,32.1,21.0,29.06,ESE,112,2.0,7.0,63,0.00,,,0.00,Rainwise IP-100,2013-11-30 18:43:00,
2013-11-30 13:48:00,32.3,21.0,29.06,SE,135,2.0,4.0,62,0.00,,,0.00,Rainwise IP-100,2013-11-30 18:48:00,
2013-11-30 13:53:00,32.4,21.0,29.06,SE,135,2.0,6.0,61,0.00,,,0.00,Rainwise IP-100,2013-11-30 18:53:00,
2013-11-30 13:58:00,32.8,23.0,29.06,SSE,157,1.0,6.0,62,0.00,,,0.00,Rainwise IP-100,2013-11-30 18:58:00,
2013-11-30 14:03:00,32.7,23.0,29.06,SSE,157,2.0,4.0,62,0.00,,,0.00,Rainwise IP-100,2013-11-30 19:03:00,
2013-11-30 14:08:00,32.7,23.0,29.05,SE,135,2.0,6.0,62,0.00,,,0.00,Rainwise IP-100,2013-11-30 19:08:00,
2013-11-30 14:13:00,32.9,23.0,29.05,SSE,157,2.0,4.0,63,0.00,,,0.00,Rainwise IP-100,2013-11-30 19:13:00,
2013-11-30 14:18:00,32.9,23.0,29.05,SSE,157,2.0,6.0,62,0.00,,,0.00,Rainwise IP-100,2013-11-30 19:18:00,
2013-11-30 14:23:00,33.1,23.0,29.05,SE,135,1.0,5.0,62,0.00,,,0.00,Rainwise IP-100,2013-11-30 19:23:00,
2013-11-30 14:28:00,33.1,23.0,29.04,SE,135,2.0,6.0,62,0.00,,,0.00,Rainwise IP-100,2013-11-30 19:28:00,
2013-11-30 14:34:00,33.3,23.0,29.04,SE,135,1.0,4.0,65,0.00,,,0.00,Rainwise IP-100,2013-11-30 19:34:00,
2013-11-30 14:39:00,33.4,23.0,29.03,ESE,112,2.0,6.0,64,0.00,,,0.00,Rainwise IP-100,2013-11-30 19:39:00,
2013-11-30 14:44:00,33.4,23.0,29.03,SE,135,1.0,6.0,63,0.00,,,0.00,Rainwise IP-100,2013-11-30 19:44:00,
2013-11-30 14:49:00,33.7,23.0,29.03,SE,135,1.0,4.0,62,0.00,,,0.00,Rainwise IP-100,2013-11-30 19:49:00,
2013-11-30 14:54:00,33.7,24.0,29.03,SE,135,2.0,4.0,64,0.00,,,0.00,Rainwise IP-100,2013-11-30 19:54:00,
2013-11-30 14:59:00,33.7,24.0,29.03,SE,135,5.0,7.0,63,0.00,,,0.00,Rainwise IP-100,2013-11-30 19:59:00,
2013-11-30 15:04:00,33.7,24.0,29.02,SE,135,4.0,6.0,63,0.00,,,0.00,Rainwise IP-100,2013-11-30 20:04:00,
2013-11-30 15:09:00,33.7,24.0,29.02,SSE,157,3.0,6.0,64,0.00,,,0.00,Rainwise IP-100,2013-11-30 20:09:00,
2013-11-30 15:14:00,33.7,24.0,29.01,SE,135,4.0,6.0,63,0.00,,,0.00,Rainwise IP-100,2013-11-30 20:14:00,
2013-11-30 15:19:00,33.6,24.0,29.01,SE,135,3.0,5.0,65,0.00,,,0.00,Rainwise IP-100,2013-11-30 20:19:00,
2013-11-30 15:24:00,33.6,24.0,29.00,SE,135,2.0,6.0,65,0.00,,,0.00,Rainwise IP-100,2013-11-30 20:24:00,
2013-11-30 15:29:00,33.6,24.0,29.00,SSE,157,2.0,9.0,65,0.00,,,0.00,Rainwise IP-100,2013-11-30 20:29:00,
2013-11-30 15:35:00,33.6,24.0,28.99,SE,135,4.0,7.0,65,0.00,,,0.00,Rainwise IP-100,2013-11-30 20:35:00,
2013-11-30 15:40:00,33.6,24.0,28.99,South,180,4.0,7.0,65,0.00,,,0.00,Rainwise IP-100,2013-11-30 20:40:00,
2013-11-30 15:45:00,33.6,24.0,28.99,SSE,157,3.0,7.0,65,0.00,,,0.00,Rainwise IP-100,2013-11-30 20:45:00,
2013-11-30 15:50:00,33.7,24.0,28.99,ESE,112,2.0,8.0,65,0.00,,,0.00,Rainwise IP-100,2013-11-30 20:50:00,
2013-11-30 15:55:00,33.7,24.0,28.99,South,180,6.0,6.0,65,0.00,,,0.00,Rainwise IP-100,2013-11-30 20:55:00,
2013-11-30 16:00:00,33.8,24.0,28.99,SE,135,3.0,7.0,65,0.00,,,0.00,Rainwise IP-100,2013-11-30 21:00:00,
2013-11-30 16:05:00,33.8,24.0,28.99,SE,135,2.0,7.0,65,0.00,,,0.00,Rainwise IP-100,2013-11-30 21:05:00,
2013-11-30 16:10:00,33.9,24.0,28.98,SE,135,4.0,7.0,65,0.00,,,0.00,Rainwise IP-100,2013-11-30 21:10:00,
2013-11-30 16:15:00,33.9,24.0,28.98,South,180,4.0,7.0,65,0.00,,,0.00,Rainwise IP-100,2013-11-30 21:15:00,
2013-11-30 16:20:00,34.0,24.0,28.98,SSE,157,3.0,8.0,65,0.00,,,0.00,Rainwise IP-100,2013-11-30 21:20:00,
2013-11-30 16:25:00,33.9,24.0,28.97,SE,135,5.0,7.0,65,0.00,,,0.00,Rainwise IP-100,2013-11-30 21:25:00,
2013-11-30 16:30:00,33.9,24.0,28.97,SSE,157,4.0,11.0,65,0.00,,,0.00,Rainwise IP-100,2013-11-30 21:30:00,
2013-11-30 16:36:00,33.8,24.0,28.97,SSE,157,3.0,5.0,65,0.00,,,0.00,Rainwise IP-100,2013-11-30 21:36:00,
2013-11-30 16:41:00,33.7,24.0,28.97,South,180,3.0,4.0,65,0.00,,,0.00,Rainwise IP-100,2013-11-30 21:41:00,
2013-11-30 16:46:00,33.5,24.0,28.97,South,180,4.0,5.0,66,0.00,,,0.00,Rainwise IP-100,2013-11-30 21:46:00,
2013-11-30 16:51:00,33.2,24.0,28.97,SSE,157,4.0,5.0,67,0.00,,,0.00,Rainwise IP-100,2013-11-30 21:51:00,
2013-11-30 16:56:00,33.1,24.0,28.96,SSE,157,2.0,4.0,68,0.00,,,0.00,Rainwise IP-100,2013-11-30 21:56:00,
2013-11-30 17:01:00,33.0,24.0,28.96,SSE,157,3.0,4.0,68,0.00,,,0.00,Rainwise IP-100,2013-11-30 22:01:00,
2013-11-30 17:06:00,32.9,24.0,28.95,SSE,157,2.0,6.0,69,0.00,,,0.00,Rainwise IP-100,2013-11-30 22:06:00,
2013-11-30 17:11:00,32.8,24.0,28.95,South,180,6.0,6.0,69,0.00,,,0.00,Rainwise IP-100,2013-11-30 22:11:00,
2013-11-30 17:16:00,32.7,24.0,28.95,SSE,157,4.0,8.0,68,0.00,,,0.00,Rainwise IP-100,2013-11-30 22:16:00,
2013-11-30 17:21:00,32.6,24.0,28.94,SSE,157,4.0,9.0,69,0.00,,,0.00,Rainwise IP-100,2013-11-30 22:21:00,
2013-11-30 17:26:00,32.6,24.0,28.94,SSE,157,4.0,7.0,69,0.00,,,0.00,Rainwise IP-100,2013-11-30 22:26:00,
2013-11-30 17:31:00,32.5,24.0,28.93,South,180,2.0,8.0,71,0.00,,,0.00,Rainwise IP-100,2013-11-30 22:31:00,
2013-11-30 17:37:00,32.3,24.0,28.93,SSE,157,6.0,7.0,72,0.00,,,0.00,Rainwise IP-100,2013-11-30 22:37:00,
2013-11-30 17:42:00,32.3,24.0,28.94,South,180,3.0,7.0,71,0.00,,,0.00,Rainwise IP-100,2013-11-30 22:42:00,
2013-11-30 17:47:00,32.3,24.0,28.94,South,180,4.0,7.0,71,0.00,,,0.00,Rainwise IP-100,2013-11-30 22:47:00,
2013-11-30 17:52:00,32.4,24.0,28.94,SSE,157,4.0,9.0,70,0.00,,,0.00,Rainwise IP-100,2013-11-30 22:52:00,
2013-11-30 17:57:00,32.3,24.0,28.94,South,180,7.0,7.0,71,0.00,,,0.00,Rainwise IP-100,2013-11-30 22:57:00,
2013-11-30 18:02:00,32.3,24.0,28.94,South,180,2.0,8.0,72,0.00,,,0.00,Rainwise IP-100,2013-11-30 23:02:00,
2013-11-30 18:07:00,32.3,24.0,28.94,South,180,6.0,7.0,71,0.00,,,0.00,Rainwise IP-100,2013-11-30 23:07:00,
2013-11-30 18:12:00,32.3,24.0,28.94,South,180,3.0,8.0,72,0.00,,,0.00,Rainwise IP-100,2013-11-30 23:12:00,
2013-11-30 18:17:00,32.2,24.0,28.93,South,180,3.0,7.0,73,0.00,,,0.00,Rainwise IP-100,2013-11-30 23:17:00,
2013-11-30 18:22:00,32.0,24.0,28.93,South,180,6.0,7.0,73,0.00,,,0.00,Rainwise IP-100,2013-11-30 23:22:00,
2013-11-30 18:27:00,31.9,24.0,28.93,South,180,5.0,7.0,73,0.00,,,0.00,Rainwise IP-100,2013-11-30 23:27:00,
2013-11-30 18:32:00,31.9,24.0,28.93,SSE,157,4.0,6.0,73,0.00,,,0.00,Rainwise IP-100,2013-11-30 23:32:00,
2013-11-30 18:38:00,31.8,24.0,28.93,South,180,4.0,7.0,74,0.00,,,0.00,Rainwise IP-100,2013-11-30 23:38:00,
2013-11-30 18:43:00,31.8,24.0,28.93,South,180,2.0,6.0,74,0.00,,,0.00,Rainwise IP-100,2013-11-30 23:43:00,
2013-11-30 18:48:00,31.6,26.0,28.93,SSE,157,2.0,7.0,75,0.00,,,0.00,Rainwise IP-100,2013-11-30 23:48:00,
2013-11-30 18:53:00,31.5,24.0,28.93,SSE,157,4.0,8.0,74,0.00,,,0.00,Rainwise IP-100,2013-11-30 23:53:00,
2013-11-30 18:58:00,31.4,24.0,28.92,SSE,157,2.0,6.0,75,0.00,,,0.00,Rainwise IP-100,2013-11-30 23:58:00,
2013-11-30 19:03:00,31.4,24.0,28.92,South,180,4.0,7.0,76,0.00,,,0.00,Rainwise IP-100,2013-12-01 00:03:00,
2013-11-30 19:08:00,31.3,24.0,28.92,South,180,6.0,6.0,76,0.00,,,0.00,Rainwise IP-100,2013-12-01 00:08:00,
2013-11-30 19:13:00,31.2,24.0,28.92,SSE,157,4.0,7.0,76,0.00,,,0.00,Rainwise IP-100,2013-12-01 00:13:00,
2013-11-30 19:18:00,31.2,24.0,28.91,South,180,4.0,8.0,76,0.00,,,0.00,Rainwise IP-100,2013-12-01 00:18:00,
2013-11-30 19:23:00,31.2,24.0,28.91,SSE,157,4.0,7.0,76,0.00,,,0.00,Rainwise IP-100,2013-12-01 00:23:00,
2013-11-30 19:28:00,31.3,24.0,28.91,South,180,4.0,9.0,77,0.00,,,0.00,Rainwise IP-100,2013-12-01 00:28:00,
2013-11-30 19:33:00,31.4,24.0,28.91,South,180,4.0,9.0,76,0.00,,,0.00,Rainwise IP-100,2013-12-01 00:33:00,
2013-11-30 19:39:00,31.5,26.0,28.91,SE,135,6.0,11.0,76,0.00,,,0.00,Rainwise IP-100,2013-12-01 00:39:00,
2013-11-30 19:44:00,31.6,26.0,28.91,South,180,5.0,11.0,76,0.00,,,0.00,Rainwise IP-100,2013-12-01 00:44:00,
2013-11-30 19:49:00,31.5,26.0,28.91,South,180,4.0,9.0,76,0.00,,,0.00,Rainwise IP-100,2013-12-01 00:49:00,
2013-11-30 19:54:00,31.6,26.0,28.91,SSW,202,6.0,9.0,76,0.00,,,0.00,Rainwise IP-100,2013-12-01 00:54:00,
2013-11-30 19:59:00,31.6,26.0,28.91,South,180,3.0,9.0,76,0.00,,,0.00,Rainwise IP-100,2013-12-01 00:59:00,
2013-11-30 20:04:00,31.7,26.0,28.91,SSW,202,4.0,8.0,76,0.00,,,0.00,Rainwise IP-100,2013-12-01 01:04:00,
2013-11-30 20:09:00,31.7,26.0,28.91,South,180,4.0,9.0,75,0.00,,,0.00,Rainwise IP-100,2013-12-01 01:09:00,
2013-11-30 20:14:00,31.7,26.0,28.91,South,180,5.0,7.0,76,0.00,,,0.00,Rainwise IP-100,2013-12-01 01:14:00,
2013-11-30 20:19:00,31.6,26.0,28.91,South,180,4.0,8.0,76,0.00,,,0.00,Rainwise IP-100,2013-12-01 01:19:00,
2013-11-30 20:24:00,31.6,26.0,28.91,South,180,5.0,11.0,75,0.00,,,0.00,Rainwise IP-100,2013-12-01 01:24:00,
2013-11-30 20:29:00,31.7,26.0,28.91,South,180,6.0,11.0,76,0.00,,,0.00,Rainwise IP-100,2013-12-01 01:29:00,
2013-11-30 20:34:00,31.7,26.0,28.90,SSE,157,4.0,8.0,75,0.00,,,0.00,Rainwise IP-100,2013-12-01 01:34:00,
2013-11-30 20:40:00,31.6,26.0,28.90,South,180,6.0,7.0,76,0.00,,,0.00,Rainwise IP-100,2013-12-01 01:40:00,
2013-11-30 20:45:00,31.6,26.0,28.90,South,180,7.0,11.0,76,0.00,,,0.00,Rainwise IP-100,2013-12-01 01:45:00,
2013-11-30 20:50:00,31.7,26.0,28.89,South,180,3.0,11.0,76,0.00,,,0.00,Rainwise IP-100,2013-12-01 01:50:00,
2013-11-30 20:55:00,31.7,26.0,28.90,South,180,7.0,8.0,76,0.00,,,0.00,Rainwise IP-100,2013-12-01 01:55:00,
2013-11-30 21:00:00,31.9,26.0,28.90,South,180,9.0,11.0,75,0.00,,,0.00,Rainwise IP-100,2013-12-01 02:00:00,
2013-11-30 21:05:00,31.9,26.0,28.90,South,180,6.0,11.0,75,0.00,,,0.00,Rainwise IP-100,2013-12-01 02:05:00,
2013-11-30 21:10:00,31.9,26.0,28.90,South,180,6.0,10.0,76,0.00,,,0.00,Rainwise IP-100,2013-12-01 02:10:00,
2013-11-30 21:15:00,31.9,26.0,28.89,South,180,10.0,12.0,75,0.00,,,0.00,Rainwise IP-100,2013-12-01 02:15:00,
2013-11-30 21:20:00,31.9,26.0,28.89,SSW,202,9.0,11.0,75,0.00,,,0.00,Rainwise IP-100,2013-12-01 02:20:00,
2013-11-30 21:25:00,31.9,26.0,28.89,SSW,202,5.0,12.0,76,0.00,,,0.00,Rainwise IP-100,2013-12-01 02:25:00,
2013-11-30 21:30:00,32.0,26.0,28.89,South,180,7.0,11.0,75,0.00,,,0.00,Rainwise IP-100,2013-12-01 02:30:00,
2013-11-30 21:35:00,32.2,26.0,28.89,SW,225,7.0,13.0,75,0.00,,,0.00,Rainwise IP-100,2013-12-01 02:35:00,
2013-11-30 21:41:00,32.2,26.0,28.89,SSE,157,9.0,12.0,75,0.00,,,0.00,Rainwise IP-100,2013-12-01 02:41:00,
2013-11-30 21:46:00,32.2,26.0,28.89,South,180,7.0,11.0,75,0.00,,,0.00,Rainwise IP-100,2013-12-01 02:46:00,
2013-11-30 21:51:00,32.3,26.0,28.89,South,180,7.0,12.0,75,0.00,,,0.00,Rainwise IP-100,2013-12-01 02:51:00,
2013-11-30 21:56:00,32.3,26.0,28.88,SSW,202,5.0,12.0,75,0.00,,,0.00,Rainwise IP-100,2013-12-01 02:56:00,
2013-11-30 22:01:00,32.4,26.0,28.89,SSW,202,5.0,12.0,75,0.00,,,0.00,Rainwise IP-100,2013-12-01 03:01:00,
2013-11-30 22:06:00,32.5,26.0,28.88,South,180,7.0,12.0,74,0.00,,,0.00,Rainwise IP-100,2013-12-01 03:06:00,
2013-11-30 22:11:00,32.5,26.0,28.88,South,180,6.0,12.0,74,0.00,,,0.00,Rainwise IP-100,2013-12-01 03:11:00,
2013-11-30 22:16:00,32.7,26.0,28.88,SSW,202,7.0,13.0,74,0.00,,,0.00,Rainwise IP-100,2013-12-01 03:16:00,
2013-11-30 22:21:00,32.9,26.0,28.88,South,180,9.0,14.0,73,0.00,,,0.00,Rainwise IP-100,2013-12-01 03:21:00,
2013-11-30 22:26:00,32.9,26.0,28.88,SSW,202,11.0,12.0,73,0.00,,,0.00,Rainwise IP-100,2013-12-01 03:26:00,
2013-11-30 22:31:00,32.9,26.0,28.88,SSW,202,11.0,13.0,74,0.00,,,0.00,Rainwise IP-100,2013-12-01 03:31:00,
2013-11-30 22:36:00,32.9,26.0,28.88,SSW,202,11.0,14.0,74,0.00,,,0.00,Rainwise IP-100,2013-12-01 03:36:00,
2013-11-30 22:42:00,33.1,26.0,28.88,South,180,6.0,14.0,74,0.00,,,0.00,Rainwise IP-100,2013-12-01 03:42:00,
2013-11-30 22:47:00,33.1,26.0,28.88,South,180,9.0,13.0,74,0.00,,,0.00,Rainwise IP-100,2013-12-01 03:47:00,
2013-11-30 22:52:00,33.0,26.0,28.88,South,180,11.0,15.0,75,0.00,,,0.00,Rainwise IP-100,2013-12-01 03:52:00,
2013-11-30 22:57:00,33.2,26.0,28.88,SW,225,10.0,11.0,75,0.00,,,0.00,Rainwise IP-100,2013-12-01 03:57:00,
2013-11-30 23:02:00,33.3,26.0,28.88,SSW,202,11.0,14.0,74,0.00,,,0.00,Rainwise IP-100,2013-12-01 04:02:00,
2013-11-30 23:07:00,33.3,26.0,28.88,SW,225,4.0,13.0,74,0.00,,,0.00,Rainwise IP-100,2013-12-01 04:07:00,
2013-11-30 23:12:00,33.3,26.0,28.88,South,180,8.0,15.0,74,0.00,,,0.00,Rainwise IP-100,2013-12-01 04:12:00,
2013-11-30 23:17:00,33.3,26.0,28.88,South,180,7.0,14.0,75,0.00,,,0.00,Rainwise IP-100,2013-12-01 04:17:00,
2013-11-30 23:22:00,33.5,28.0,28.88,SSW,202,9.0,15.0,74,0.00,,,0.00,Rainwise IP-100,2013-12-01 04:22:00,
2013-11-30 23:27:00,33.6,28.0,28.88,South,180,7.0,12.0,74,0.00,,,0.00,Rainwise IP-100,2013-12-01 04:27:00,
2013-11-30 23:32:00,33.7,28.0,28.88,SW,225,9.0,14.0,74,0.00,,,0.00,Rainwise IP-100,2013-12-01 04:32:00,
2013-11-30 23:37:00,33.8,28.0,28.88,SW,225,7.0,11.0,74,0.00,,,0.00,Rainwise IP-100,2013-12-01 04:37:00,
2013-11-30 23:43:00,33.7,28.0,28.88,South,180,7.0,11.0,74,0.00,,,0.00,Rainwise IP-100,2013-12-01 04:43:00,
2013-11-30 23:48:00,33.7,28.0,28.88,SSW,202,8.0,13.0,74,0.00,,,0.00,Rainwise IP-100,2013-12-01 04:48:00,
2013-11-30 23:53:00,33.6,28.0,28.88,SSW,202,8.0,14.0,75,0.00,,,0.00,Rainwise IP-100,2013-12-01 04:53:00,
2013-11-30 23:58:00,33.7,28.0,28.88,SSW,202,7.0,14.0,75,0.00,,,0.00,Rainwise IP-100,2013-12-01 04:58:00,